www.pogodaiklimat.ru

Погода и климат >> Архив погоды >> Россия >> Мордовия >> Темников


ПОГОДА в Темникове

  • Прогноз погоды в Темникове
  • Монитор погоды в Темникове
  • Климат города

АРХИВ ПОГОДЫ в Темникове

Время (UTC), дата Ветер
(напр.,м/с)
 
Видим.   Явления Облачность Т
(С)
Тd
(С)
f
(%)
Тe
(С)
Тes
(С)
Комфортность P
(гПа)
Po
(гПа)
Тmin
(С)
Tmax
(С)
R
(мм)
R24
(мм)
S
(см)
03 14.10 СЗ 2-3
{4}
10 км 10/6 600 м
[Sc diur, vesp Ac As]
+8.5 +6.8 89 +7 +7 1024.2 1007.2 +8.4
06 14.10 СЗ 1-3
{3}
20 км 10/10 300 м
[St]
+8.8 +7.1 89 +8 +8 1025.0 1008.0 +8.3
09 14.10 СЗ 2-3
{4}
20 км 10/10 300 м
[St]
+9.3 +6.5 83 +8 +8 1024.9 1007.9
12 14.10 З 1-2
{6}
20 км 10/10 300 м
[St]
+9.9 +6.2 78 +10 +10 1024.6 1007.7
15 14.10 штиль 0
{2}
10 км 10/10 300 м
[St]
+9.2 +6.2 81 +8 +8 1024.6 1007.6 +10.1
18 14.10 З 2-3
{3}
4000 м дымка {дождь} 10/10 300 м
[Frnb]
+9.4 +8.0 91 +8 +8 1024.0 1007.0
21 14.10 З 2-3
{4}
4000 м дымка 10/10 300 м
[St]
+9.4 +8.1 92 +8 +8 1023.1 1006.1
00 15.10 З 3-5
{6}
4000 м дымка 10/10 300 м
[St]
+10.3 +8.9 91 +8 +8 1022.5 1005.7
03 15.10 З 2-4
{5}
4000 м дымка 8/6 600 м
[Sc Ac trans]
+9.4 +8.1 92 +8 +8 1023.4 1006.4 +9.2 0.0
06 15.10 СЗ 2-4
{5}
20 км 8/6 600 м
[Sc Ac trans]
+10.9 +9.0 88 +10 +10 1023.7 1006.9 +9.0
09 15.10 З 3-7
{7}
20 км 1/0
[Ci fib]
+16.7 +9.9 64 +17 +20 1023.5 1007.0
12 15.10 СЗ 3-6
{8}
20 км ясно +20.9 +8.4 45 +23 +24 комфорт 1023.3 1007.0
15 15.10 З 2-4
{9}
10 км ясно +16.8 +7.4 54 +17 +17 1024.3 1007.7 +21.3
18 15.10 З 3-5
{6}
10 км ясно +13.9 +8.1 68 +13 +13 1025.0 1008.3
21 15.10 З 2-3
{5}
10 км ясно +10.4 +6.5 77 +9 +9 1025.4 1008.5
00 16.10 З 2-2
{3}
10 км ясно +5.9 +4.3 89 +3 +3 1026.0 1008.7
03 16.10 З 2-3
{3}
4000 м дымка ясно +5.4 +4.5 94 +3 +3 1026.3 1009.0 +4.3
06 16.10 штиль 0
{3}
20 км 3/0
[Cs]
+9.6 +7.7 88 +9 +10 1026.0 1009.0
09 16.10 З 3-5
{6}
20 км 3/0
[Cs]
+16.3 +7.3 55 +16 +19 1025.3 1008.7
12 16.10 З 3-6
{7}
20 км 3/0
[Cs]
+18.0 +4.6 41 +18 +19 1024.7 1008.2
15 16.10 З 2-3
{6}
20 км 4/0
[As op Ci fib]
+12.2 +3.2 54 +12 +12 1024.2 1007.5 +18.6
18 16.10 З 2-2
{3}
10 км 3/0
[Ci fib]
+9.5 +3.8 68 +8 +8 1023.8 1006.8
21 16.10 З 3-5
{6}
10 км 3/0
[Ci fib]
+10.0 +3.6 64 +8 +8 1023.2 1006.2
00 17.10 З 3-5
{6}
10 км ясно +8.6 +3.2 69 +6 +6 1022.5 1005.5
03 17.10 З 3-5
{6}
10 км ясно +7.4 +3.2 75 +5 +5 1022.6 1005.5 +7.3
06 17.10 З 2-4
{5}
20 км ясно +9.8 +4.1 68 +8 +10 1023.2 1006.2 +6.8
09 17.10 СЗ 3-6
{7}
20 км ясно +14.5 +5.9 56 +14 +17 1023.8 1007.2
12 17.10 СЗ 3-6
{7}
20 км ясно +15.8 +6.8 55 +15 +17 1024.1 1007.5
15 17.10 С 2-3
{6}
20 км 1/0
[As trans]
+11.1 +6.4 73 +10 +10 1025.6 1008.7 +16.1
18 17.10 СЗ 1-2
{5}
4000 м дымка ясно +5.2 +4.0 92 +4 +4 1026.8 1009.5
21 17.10 З 1-1
{2}
4000 м дымка ясно +2.8 +1.8 93 +1 +1 1027.5 1010.1
00 18.10 штиль 0
{1}
4000 м дымка ясно +0.4 -0.5 94 -1 -1 1027.5 1010.0
03 18.10 штиль 0
{2}
500 м туман ясно +0.1 +0.1 100 -1 -1 1027.6 1009.9 -0.1
06 18.10 В 1-2
{2}
4000 м дымка {туман} ясно +1.5 +0.7 94 -0 +1 1027.3 1009.8
09 18.10 В 2-3
{3}
20 км ясно +11.1 +9.5 90 +10 +13 1025.7 1008.8
12 18.10 ЮЗ 3-4
{5}
20 км ясно +16.1 +7.0 55 +16 +17 1023.3 1006.8
15 18.10 Ю 1-2
{4}
10 км ясно +8.4 +6.2 86 +8 +8 1022.5 1005.5 +16.4
18 18.10 ЮЗ 2-3
{4}
10 км 3/0
[Ci fib]
+10.1 +6.2 77 +9 +9 1021.3 1004.5
21 18.10 ЮЗ 3-4
{5}
10 км 3/0
[Ci fib]
+10.2 +5.5 73 +8 +8 1020.7 1003.9
00 19.10 ЮЗ 2-4
{5}
10 км ясно +8.6 +5.3 80 +7 +7 1020.1 1003.1
03 19.10 ЮЗ 2-4
{4}
10 км ясно +7.5 +5.8 89 +5 +5 1019.6 1002.5 +7.5
06 19.10 ЮЗ 3-5
{5}
20 км ясно +9.8 +6.5 80 +8 +9 1018.9 1002.0 +7.3
09 19.10 ЮЗ 3-6
{8}
20 км 10/5 600 м
[Sc diur, vesp Ac trans]
+16.0 +6.8 54 +16 +16 1017.4 1001.0
12 19.10 З 2-5
{7}
20 км 8/3 600 м
[Cb calv Ac trans]
+19.6 +9.4 52 +21 +22 комфорт 1015.8 999.5
15 19.10 ЮЗ 1-2
{8}
20 км 8/5 600 м
[Sc diur, vesp Ac trans]
+14.2 +8.9 70 +15 +15 1015.2 998.7 +19.7
18 19.10 ЮЗ 1-2
{4}
10 км 8/0
[Ac As]
+13.4 +8.0 70 +14 +14 1014.6 998.0
21 19.10 З 2-2
{4}
10 км 10/10 600 м
[Sc]
+13.7 +7.1 64 +13 +13 1014.6 998.0
00 20.10 СЗ 2-4
{4}
10 км 10/10 600 м
[Sc]
+12.0 +8.8 81 +11 +11 1014.3 997.7
03 20.10 СЗ 2-2
{6}
10 км 8/4 600 м
[Sc Ac As]
+9.0 +6.4 84 +7 +7 1015.9 999.0 +8.8
06 20.10 СЗ 3-5
{5}
20 км 9/5 600 м
[Sc Ac As]
+8.5 +6.5 87 +6 +6 1017.4 1000.5 +9.1
09 20.10 СЗ 4-6
{7}
20 км 5/5 600 м
[Cu hum]
+12.1 +2.7 53 +10 +11 1018.0 1001.3
12 20.10 СЗ 3-5
{7}
20 км 6/3 600 м
[Cu hum As trans Ci fib]
+11.9 +1.5 49 +11 +11 1018.7 1001.9
15 20.10 С 1-2
{6}
20 км 4/1
[Cu hum]
+7.2 +1.3 66 +7 +7 1019.7 1002.7 +22.4
18 20.10 С 2-2
{3}
10 км 8/8 600 м
[Sc]
+5.7 +0.9 71 +3 +3 1021.4 1004.2
21 20.10 С 1-1
{4}
10 км 8/8 300 м
[St]
+6.0 +0.6 68 +5 +5 1022.0 1004.8
00 21.10 С 1-2
{2}
10 км 10/10 300 м
[St]
+4.6 +1.0 77 +3 +3 1022.5 1005.3

 

Местоположение метеостанции Темников (Мордовия, Россия): широта 54.63 долгота 43.23 высота над уровнем моря 139 м.

В архиве по умолчанию представлена погода в Темникове за последнюю неделю. Архивные данные за месяц целиком и за предыдущие месяцы, начиная с января 2011 года, Вы можете получить, выбрав интересующий диапазон дат из раскрывающегося списка и нажав кнопку "Ввод!".


*Определитесь, кто Вы:
робот инопланетянин человек

Внимание! Время в таблицах - всемирное. Для получения местного времени необходимо прибавить поправку, которая в Темникове равна 3 ч.

Смотрите также архив погоды в соседних городах и на ближайших метеорологических станциях:

Погода в Краснослободске (Мордовия, Россия) (41 км)
Погода в Торбеево (Мордовия, Россия) (61 км)
Погода в Сасово (Рязанская область, Россия) (87 км)
Погода в Арзамасе (Нижегородская область, Россия) (89 км)
Погода в Лукоянове (Нижегородская область, Россия) (93 км)
Погода в Елатьме (Рязанская область, Россия) (100 км)
Погода в Выксе (Нижегородская область, Россия) (105 км)
Погода в Инсаре (Мордовия, Россия) (113 км)
Погода в Муроме (Владимирская область, Россия) (132 км)
Погода в Земетчино (Пензенская область, Россия) (134 км)

Пояснения к столбцам:

Ветер - указаны скорость ветра в м/с - средняя за 10 мин, порывы в срок и между сроками (в фигурных скобках) и направление, откуда дует ветер: С - северный, СВ - северо-восточный, В - восточный, ЮВ - юго-восточный, Ю - южный, ЮЗ - юго-западный, З - западный, СЗ - северо-западный.
Видимость - горизонтальная дальность видимости в метрах или километрах. При видимости от 1 до 10 км при отсутствии осадков обычно наблюдается дымка, при ухудшении видимости до 1 км и менее - туман. В сухую погоду видимость может ухудшаться дымом, пылью или мглою.
Явления - указаны атмосферные явления, наблюдавшиеся в срок или в последний час перед сроком; фигурными скобками обозначены явления, наблюдавшиеся между сроками (за 1-3 часа до срока); квадратными скобками обозначены град или гололедные отложения с указанием их диаметра в мм.
Облачность - указаны через наклонную черту общая и нижняя облачность в баллах и высота нижней границы облаков в метрах; квадратными скобками обозначены формы облаков: Ci - перистые, Cs - перисто-слоистые, Cc - перисто-кучевые, Ac - высококучевые, As - высокослоистые, Sc - слоисто-кучевые, Ns - слоисто-дождевые, Cu - кучевые, Cb - кучево-дождевые. Подробнее классификацию облаков см. в Атласе облаков (PDF).
T - Температура воздуха - температура, измеренная на высоте 2 м над землей.
Td - Температура точки росы - температура, при понижении до которой содержащийся в воздухе водяной пар достигнет насыщения.
f - Относительная влажность воздуха - влажноcть воздуха, измеренная на высоте 2 м над землей.
Te - Эффективная температура - температура, которую ощущает одетый по сезону человек в тени. Характеристика душности погоды. При расчете учитывается влияние влажности воздуха и скорости ветра на теплоощущения человека.
Tes - Эффективная температура на солнце - температура, которую ощущает человек, с поправкой на солнечный нагрев. Характеристика знойности погоды. Зависит от высоты солнца над горизонтом, облачности и скорости ветра. Ночью, в пасмурную погоду, а также при ветре 12 м/с и более поправка равна нулю.
P - Атмосферное давление - приведенное к уровню моря атмосферное давление.
Po - Атмосферное давление - измеренное на уровне метеостанции атмосферное давление.
Tmin - Минимальная температура - минимум температуры воздуха на высоте 2 м над землей.
Tmax - Максимальная температура - максимум температуры воздуха на высоте 2 м над землей.
R - Количество осадков - Количество выпавших осадков за период времени, мм. При наведении курсора мыши на число - период времени, за который выпало указанное количество осадков.
R24 - Количество осадков - Количество выпавших осадков за 24 часа, мм.
S - Снежный покров - Высота снежного покрова, см. При наведении курсора мыши на число - состояние снежного покрова и степень покрытия местности в баллах.